period_start,C,m1,H,J0,J1,J2,J3,J4,J5,JA,JB,JC,JD,JJ,JK,JN,#
2017-04-22 00:00:39,0.05,0.11,0.00,24.08,27.34,30.45,14.47,49.09,1019.34,2031.07,3467.35,3064.20,3515.17,600.04,595.49,1.78,0000 0000 0000 0000 000000
2017-04-22 00:05:40,0.07,0.12,0.00,24.03,27.34,30.45,14.48,48.99,1019.45,2031.09,3465.86,3063.31,3514.09,599.92,595.51,1.83,0000 0000 0000 0000 000000
2017-04-22 00:10:42,0.05,0.12,0.00,24.05,27.34,30.48,14.48,48.98,1019.49,2031.08,3464.53,3062.47,3513.09,599.99,595.48,1.88,0000 0000 0000 0000 000000
2017-04-22 00:15:43,0.05,0.12,0.00,24.06,27.32,30.47,14.45,48.95,1019.51,2031.09,3463.12,3061.63,3512.08,599.97,595.63,1.93,0000 0000 0000 0000 000000
2017-04-22 00:20:44,0.06,0.12,0.00,24.05,27.32,30.45,14.43,48.93,1019.54,2031.16,3461.82,3060.88,3511.11,600.10,595.75,1.98,0000 0000 0000 0000 000000
2017-04-22 00:25:46,0.06,0.13,0.00,24.05,27.32,30.44,14.50,48.88,1019.55,2031.24,3460.52,3060.04,3510.09,599.69,595.50,2.03,0000 0000 0000 0000 000000
2017-04-22 00:30:47,0.05,0.13,0.00,24.04,27.30,30.45,14.54,49.02,1019.55,2031.23,3459.17,3059.14,3509.11,600.23,595.77,2.08,0000 0000 0000 0000 000000
2017-04-22 00:35:48,0.07,0.13,0.00,24.02,27.30,30.45,14.43,48.88,1019.56,2031.37,3457.84,3058.39,3508.24,599.96,595.71,2.13,0000 0000 0000 0000 000000
2017-04-22 00:40:50,0.08,0.14,0.00,24.02,27.29,30.44,14.51,48.92,1019.56,2031.74,3456.65,3057.84,3507.42,600.07,595.74,2.18,0000 0000 0000 0000 000000
2017-04-22 00:45:51,0.05,0.14,0.00,24.00,27.27,30.44,14.44,48.75,1019.87,2031.90,3455.55,3057.05,3506.56,599.84,595.92,2.23,0000 0000 0000 0000 000000
2017-04-22 00:50:52,0.05,0.14,0.00,24.03,27.27,30.42,14.44,48.67,1020.01,2031.97,3454.48,3056.45,3505.82,600.04,595.99,2.28,0000 0000 0000 0000 000000
2017-04-22 00:55:54,0.04,0.15,0.00,24.06,27.25,30.38,14.49,48.86,1020.01,2031.98,3453.24,3055.71,3504.90,599.99,595.93,2.33,0000 0000 0000 0000 000000
2017-04-22 01:00:55,0.04,0.15,0.00,24.04,27.25,30.33,14.47,48.90,1020.03,2031.99,3452.01,3054.98,3504.06,599.57,595.51,2.38,0000 0000 0000 0000 000000
2017-04-22 01:05:56,0.05,0.15,0.00,23.98,27.23,30.33,14.50,48.81,1020.03,2031.99,3450.89,3054.27,3503.36,599.87,595.91,2.43,0000 0000 0000 0000 000000
2017-04-22 01:10:57,0.05,0.15,0.00,23.94,27.22,30.34,14.41,48.80,1020.04,2031.98,3449.68,3053.56,3502.35,599.49,595.89,2.48,0000 0000 0000 0000 000000
2017-04-22 01:15:58,0.04,0.16,0.00,23.92,27.22,30.31,14.46,48.93,1020.04,2031.99,3448.54,3052.86,3501.55,599.48,595.66,2.54,0000 0000 0000 0000 000000
2017-04-22 01:21:00,0.04,0.16,0.00,23.95,27.22,30.33,14.48,48.87,1020.10,2031.99,3447.33,3052.05,3500.67,599.56,595.79,2.59,0000 0000 0000 0000 000000
2017-04-22 01:26:01,0.05,0.16,0.00,23.92,27.21,30.30,14.47,48.81,1020.28,2031.99,3446.12,3051.32,3499.81,600.16,596.48,2.64,0000 0000 0000 0000 000000
2017-04-22 01:31:02,0.05,0.16,0.00,23.84,27.20,30.29,14.59,48.98,1020.50,2031.99,3444.87,3050.69,3498.92,600.01,596.63,2.69,0000 0000 0000 0000 000000
2017-04-22 01:36:03,0.05,0.17,0.00,23.76,27.20,30.31,14.49,48.88,1020.52,2031.99,3443.55,3049.87,3497.96,599.76,596.52,2.74,0000 0000 0000 0000 000000
2017-04-22 01:41:04,0.05,0.17,0.00,23.81,27.20,30.32,14.56,48.96,1020.52,2031.99,3442.29,3049.04,3497.03,600.15,596.89,2.79,0000 0000 0000 0000 000000
2017-04-22 01:46:06,0.05,0.17,0.00,23.86,27.20,30.32,14.51,48.88,1020.52,2031.99,3441.05,3048.24,3496.14,599.97,596.64,2.84,0000 0000 0000 0000 000000
2017-04-22 01:51:07,0.06,0.18,0.00,23.88,27.20,30.33,14.58,48.83,1020.53,2031.99,3439.78,3047.52,3495.28,600.26,597.00,2.89,0000 0000 0000 0000 000000
2017-04-22 01:56:08,0.05,0.18,0.00,23.91,27.20,30.32,14.56,48.86,1020.53,2031.99,3438.52,3046.71,3494.37,600.22,596.79,2.94,0000 0000 0000 0000 000000
2017-04-22 02:01:09,0.04,0.18,0.00,23.97,27.20,30.32,14.50,48.80,1020.55,2031.99,3437.27,3045.97,3493.37,600.08,596.42,2.99,0000 0000 0000 0000 000000
2017-04-22 02:06:11,0.05,0.18,0.00,23.90,27.20,30.30,14.54,48.92,1020.57,2031.99,3436.08,3045.11,3492.49,599.82,596.31,3.04,0000 0000 0000 0000 000000
2017-04-22 02:11:12,0.05,0.19,0.00,23.82,27.19,30.25,14.52,48.98,1020.56,2031.99,3434.92,3044.51,3491.70,599.82,596.42,3.09,0000 0000 0000 0000 000000
2017-04-22 02:16:13,0.03,0.19,0.00,23.72,27.19,30.23,14.53,48.90,1020.58,2032.00,3433.84,3043.86,3490.85,600.25,597.15,3.14,0000 0000 0000 0000 000000
2017-04-22 02:21:14,0.05,0.19,0.00,23.99,27.19,30.30,14.50,48.87,1020.86,2032.00,3432.74,3043.05,3490.01,599.76,596.39,3.19,0000 0000 0000 0000 000000
2017-04-22 02:26:16,0.05,0.19,0.00,24.06,27.19,30.32,14.50,48.70,1020.86,2032.00,3431.74,3042.44,3489.16,600.16,596.45,3.24,0000 0000 0000 0000 000000
2017-04-22 02:31:17,0.06,0.20,0.00,24.11,27.19,30.32,14.45,48.75,1020.84,2032.00,3430.35,3041.49,3488.14,600.28,596.46,3.29,0000 0000 0000 0000 000000
2017-04-22 02:36:18,0.04,0.20,0.00,24.15,27.19,30.30,14.37,48.73,1020.85,2032.00,3429.05,3040.79,3487.13,599.57,595.77,3.34,0000 0000 0000 0000 000000
2017-04-22 02:41:19,0.06,0.20,0.00,24.10,27.19,30.26,14.54,48.69,1021.01,2032.00,3427.71,3039.93,3486.03,600.16,596.44,3.39,0000 0000 0000 0000 000000
2017-04-22 02:46:21,0.05,0.20,0.00,24.02,27.19,30.26,14.42,48.68,1021.00,2032.00,3426.50,3039.02,3485.02,599.79,596.33,3.44,0000 0000 0000 0000 000000
2017-04-22 02:51:22,0.06,0.21,0.00,24.08,27.19,30.24,14.43,48.63,1021.01,2032.00,3425.02,3038.07,3483.97,599.94,596.31,3.49,0000 0000 0000 0000 000000
2017-04-22 02:56:23,0.05,0.21,0.00,24.12,27.18,30.22,14.46,48.58,1021.01,2032.00,3423.81,3037.22,3483.00,599.57,595.97,3.54,0000 0000 0000 0000 000000
2017-04-22 03:01:25,0.06,0.21,0.00,24.28,27.19,30.23,14.46,48.45,1021.04,2032.00,3422.52,3036.38,3482.02,600.06,596.10,3.59,0000 0000 0000 0000 000000
2017-04-22 03:06:26,0.05,0.22,0.00,24.30,27.20,30.23,14.50,48.65,1021.23,2032.00,3421.24,3035.59,3480.99,600.27,596.35,3.64,0000 0000 0000 0000 000000
2017-04-22 03:11:27,0.06,0.22,0.00,24.29,27.20,30.19,14.47,48.59,1021.46,2032.00,3419.82,3034.65,3479.91,599.88,596.16,3.69,0000 0000 0000 0000 000000
2017-04-22 03:16:29,0.06,0.22,0.00,24.35,27.20,30.15,14.45,48.51,1021.49,2032.00,3418.41,3033.76,3478.82,599.86,596.15,3.74,0000 0000 0000 0000 000000
2017-04-22 03:21:30,0.05,0.23,0.00,24.38,27.20,30.17,14.52,48.45,1021.51,2031.98,3417.02,3032.87,3477.75,600.07,596.20,3.79,0000 0000 0000 0000 000000
2017-04-22 03:26:32,0.06,0.23,0.00,24.45,27.21,30.21,14.45,48.39,1021.55,2031.97,3415.69,3031.96,3476.72,599.97,595.99,3.84,0000 0000 0000 0000 000000
2017-04-22 03:31:33,0.06,0.23,0.00,24.47,27.22,30.17,14.43,48.48,1021.61,2031.99,3414.20,3031.02,3475.64,599.64,595.77,3.89,0000 0000 0000 0000 000000
2017-04-22 03:36:34,0.06,0.24,0.00,24.55,27.22,30.17,14.46,48.41,1021.84,2031.97,3412.77,3030.07,3474.51,600.42,596.35,3.94,0000 0000 0000 0000 000000
2017-04-22 03:41:35,0.06,0.24,0.00,24.60,27.24,30.14,14.42,48.44,1021.90,2031.99,3411.43,3029.15,3473.42,599.64,595.52,3.99,0000 0000 0000 0000 000000
2017-04-22 03:46:37,0.05,0.24,0.00,24.63,27.25,30.15,14.38,48.45,1021.95,2031.95,3409.89,3028.13,3472.22,600.26,596.16,4.04,0000 0000 0000 0000 000000
2017-04-22 03:51:38,0.06,0.25,0.00,24.66,27.27,30.14,14.42,48.46,1021.95,2031.94,3408.59,3027.20,3471.15,599.84,595.62,4.09,0000 0000 0000 0000 000000
2017-04-22 03:56:39,0.05,0.25,0.00,24.66,27.29,30.16,14.44,48.58,1021.99,2031.85,3407.21,3026.28,3469.98,599.79,595.68,4.14,0000 0000 0000 0000 000000
2017-04-22 04:01:40,0.04,0.25,0.00,24.62,27.30,30.19,14.41,48.55,1021.99,2031.50,3405.61,3025.18,3468.74,599.45,595.53,4.19,0000 0000 0000 0000 000000
2017-04-22 04:06:42,0.04,0.25,0.00,24.61,27.32,30.18,14.43,48.53,1021.99,2031.09,3404.06,3024.12,3467.48,599.91,595.71,4.24,0000 0000 0000 0000 000000
2017-04-22 04:11:43,0.06,0.25,0.00,24.61,27.34,30.19,14.46,48.59,1022.00,2031.08,3402.65,3023.29,3466.49,600.11,596.00,4.29,0000 0000 0000 0000 000000
2017-04-22 04:16:44,0.05,0.26,0.00,24.61,27.35,30.20,14.53,48.64,1022.25,2031.03,3401.35,3022.32,3465.40,600.29,596.43,4.34,0000 0000 0000 0000 000000
2017-04-22 04:21:46,0.06,0.26,0.00,24.57,27.37,30.22,14.49,48.48,1022.43,2031.00,3399.81,3021.37,3464.30,599.92,596.22,4.39,0000 0000 0000 0000 000000
2017-04-22 04:26:47,0.07,0.26,0.00,24.64,27.39,30.28,14.45,48.40,1022.48,2031.00,3398.17,3020.21,3462.95,599.98,596.18,4.44,0000 0000 0000 0000 000000
2017-04-22 04:31:48,0.07,0.27,0.00,24.62,27.40,30.27,14.44,48.54,1022.48,2031.00,3396.63,3019.22,3461.65,599.96,596.17,4.49,0000 0000 0000 0000 000000
2017-04-22 04:36:50,0.06,0.27,0.00,24.63,27.42,30.29,14.49,48.62,1022.48,2031.00,3395.32,3018.23,3460.61,600.14,596.33,4.54,0000 0000 0000 0000 000000
2017-04-22 04:41:51,0.06,0.27,0.00,24.65,27.43,30.31,14.40,48.60,1022.48,2030.99,3393.97,3017.33,3459.56,599.91,596.27,4.59,0000 0000 0000 0000 000000
2017-04-22 04:46:53,0.06,0.28,0.00,24.64,27.45,30.27,14.59,48.63,1022.48,2030.97,3392.69,3016.52,3458.60,600.33,596.50,4.64,0000 0000 0000 0000 000000
2017-04-22 04:51:54,0.05,0.28,0.00,24.63,27.46,30.29,14.62,48.60,1022.49,2030.92,3391.45,3015.67,3457.46,600.46,596.70,4.69,0000 0000 0000 0000 000000
2017-04-22 04:56:55,0.03,0.28,0.00,24.66,27.47,30.29,14.45,48.50,1022.54,2030.88,3390.45,3014.92,3456.56,599.96,596.27,4.74,0000 0000 0000 0000 000000
2017-04-22 05:01:57,0.02,0.28,0.00,24.69,27.49,30.31,14.46,48.48,1022.79,2030.64,3389.08,3014.00,3455.57,600.10,596.40,4.79,0000 0000 0000 0000 000000
2017-04-22 05:06:58,0.04,0.29,0.00,24.69,27.50,30.31,14.51,48.58,1022.95,2030.29,3387.67,3013.02,3454.54,600.38,596.73,4.85,0000 0000 0000 0000 000000
2017-04-22 05:11:59,0.05,0.29,0.00,24.70,27.52,30.35,14.51,48.70,1022.94,2030.11,3386.08,3012.05,3453.42,600.22,596.54,4.90,0000 0000 0000 0000 000000
2017-04-22 05:17:00,0.06,0.29,0.00,24.74,27.52,30.35,14.42,48.41,1022.96,2030.06,3384.65,3011.12,3452.31,599.69,595.98,4.95,0000 0000 0000 0000 000000
2017-04-22 05:22:02,0.06,0.30,0.00,24.75,27.53,30.33,14.44,48.48,1022.96,2030.02,3383.06,3010.15,3451.12,599.92,596.11,5.00,0000 0000 0000 0000 000000
2017-04-22 05:27:03,0.06,0.30,0.00,24.77,27.55,30.36,14.39,48.41,1022.97,2030.00,3381.54,3009.15,3449.96,599.99,596.21,5.05,0000 0000 0000 0000 000000
2017-04-22 05:32:04,0.06,0.30,0.00,24.79,27.55,30.34,14.46,48.55,1023.07,2030.00,3380.09,3008.23,3448.94,600.01,596.26,5.10,0000 0000 0000 0000 000000
2017-04-22 05:37:05,0.07,0.30,0.00,24.81,27.56,30.36,14.50,48.52,1023.22,2030.00,3378.64,3007.43,3447.85,600.20,596.51,5.15,0000 0000 0000 0000 000000
2017-04-22 05:42:07,0.05,0.31,0.00,24.82,27.57,30.37,14.50,48.48,1023.27,2030.00,3377.24,3006.55,3446.75,600.28,596.63,5.20,0000 0000 0000 0000 000000
2017-04-22 05:47:08,0.06,0.31,0.00,24.85,27.57,30.38,14.48,48.41,1023.44,2030.00,3375.80,3005.72,3445.68,600.19,596.51,5.25,0000 0000 0000 0000 000000
2017-04-22 05:52:09,0.06,0.31,0.00,24.85,27.58,30.41,14.41,48.39,1023.45,2030.00,3374.33,3004.77,3444.60,599.91,596.28,5.30,0000 0000 0000 0000 000000
2017-04-22 05:57:10,0.05,0.32,0.00,24.85,27.60,30.39,14.42,48.43,1023.45,2029.99,3372.86,3003.87,3443.54,600.04,596.28,5.35,0000 0000 0000 0000 000000
2017-04-22 06:02:12,0.06,0.32,0.00,24.86,27.60,30.39,14.39,48.39,1023.45,2029.99,3371.45,3002.94,3442.44,599.81,596.08,5.40,0000 0000 0000 0000 000000
2017-04-22 06:07:13,0.05,0.32,0.00,24.87,27.60,30.40,14.47,48.40,1023.47,2029.98,3370.13,3002.04,3441.46,599.88,596.20,5.45,0000 0000 0000 0000 000000
2017-04-22 06:12:14,0.07,0.33,0.00,24.87,27.60,30.42,14.45,48.37,1023.48,2029.98,3368.61,3001.09,3440.40,599.75,596.12,5.50,0000 0000 0000 0000 000000
2017-04-22 06:17:16,0.05,0.33,0.00,24.89,27.62,30.42,14.50,48.39,1023.60,2029.96,3367.24,3000.17,3439.42,600.14,596.35,5.55,0000 0000 0000 0000 000000
2017-04-22 06:22:17,0.06,0.33,0.00,24.93,27.62,30.41,14.48,48.50,1023.77,2029.98,3365.92,2999.47,3438.48,600.36,596.56,5.60,0000 0000 0000 0000 000000
2017-04-22 06:27:18,0.05,0.33,0.00,24.97,27.62,30.42,14.49,48.46,1023.90,2029.97,3364.73,2998.67,3437.56,600.17,596.62,5.65,0000 0000 0000 0000 000000
2017-04-22 06:32:20,0.04,0.34,0.00,25.00,27.62,30.45,14.55,48.62,1023.93,2029.98,3363.49,2997.87,3436.64,600.20,596.53,5.70,0000 0000 0000 0000 000000
2017-04-22 06:37:21,0.05,0.34,0.00,25.02,27.63,30.48,14.47,48.47,1023.94,2029.97,3362.19,2997.01,3435.64,600.40,596.58,5.75,0000 0000 0000 0000 000000
2017-04-22 06:42:23,0.06,0.34,0.00,25.05,27.65,30.48,14.47,48.40,1023.94,2029.97,3360.80,2996.16,3434.62,600.29,596.56,5.80,0000 0000 0000 0000 000000
2017-04-22 06:47:24,0.05,0.35,0.00,25.09,27.65,30.55,14.44,48.45,1023.94,2029.96,3359.65,2995.32,3433.68,599.91,596.08,5.85,0000 0000 0000 0000 000000
2017-04-22 06:52:25,0.06,0.35,0.00,25.11,27.67,30.58,14.34,48.41,1023.94,2029.94,3358.10,2994.35,3432.54,599.65,595.91,5.90,0000 0000 0000 0000 000000
2017-04-22 06:57:27,0.06,0.35,0.00,25.15,27.68,30.58,14.45,48.38,1023.95,2029.88,3356.60,2993.34,3431.39,600.05,596.12,5.95,0000 0000 0000 0000 000000
2017-04-22 07:02:27,0.05,0.36,0.00,25.19,27.70,30.60,14.43,48.41,1023.95,2029.77,3355.13,2992.31,3430.19,599.86,595.79,6.00,0000 0000 0000 0000 000000
2017-04-22 07:07:29,0.04,0.36,0.00,25.23,27.71,30.62,14.50,48.48,1024.01,2029.67,3353.77,2991.51,3429.20,600.15,596.02,6.05,0000 0000 0000 0000 000000
2017-04-22 07:12:30,0.06,0.36,0.00,25.26,27.73,30.63,14.41,48.48,1024.20,2029.58,3352.24,2990.36,3427.93,600.03,595.98,6.10,0000 0000 0000 0000 000000
2017-04-22 07:17:31,0.04,0.36,0.00,25.29,27.75,30.67,14.37,48.40,1024.42,2029.29,3350.86,2989.46,3426.79,599.96,595.86,6.15,0000 0000 0000 0000 000000
2017-04-22 07:22:32,0.06,0.37,0.00,25.33,27.77,30.69,14.49,48.38,1024.43,2029.09,3349.25,2988.45,3425.58,600.03,595.96,6.20,0000 0000 0000 0000 000000
2017-04-22 07:27:33,0.07,0.37,0.00,25.39,27.80,30.70,14.48,48.48,1024.43,2029.02,3347.21,2987.16,3424.09,600.02,595.93,6.25,0000 0000 0000 0000 000000
2017-04-22 07:32:35,0.06,0.37,0.00,25.42,27.82,30.71,14.47,48.44,1024.45,2029.00,3345.81,2986.21,3422.92,600.04,595.87,6.30,0000 0000 0000 0000 000000
2017-04-22 07:37:36,0.06,0.38,0.00,25.47,27.84,30.74,14.41,48.37,1024.46,2029.00,3344.49,2985.28,3421.81,599.83,595.54,6.35,0000 0000 0000 0000 000000
2017-04-22 07:42:37,0.06,0.38,0.00,25.52,27.87,30.74,14.41,48.24,1024.70,2029.00,3343.19,2984.32,3420.66,599.93,595.63,6.40,0000 0000 0000 0000 000000
2017-04-22 07:47:39,0.05,0.38,0.00,25.57,27.89,30.79,14.51,48.41,1024.84,2029.00,3341.89,2983.57,3419.73,600.29,596.01,6.45,0000 0000 0000 0000 000000
2017-04-22 07:52:40,0.06,0.39,0.00,25.62,27.92,30.81,14.36,48.39,1024.92,2028.95,3340.57,2982.59,3418.57,599.80,595.53,6.50,0000 0000 0000 0000 000000
2017-04-22 07:57:41,0.03,0.39,0.00,25.67,27.95,30.84,14.41,48.35,1024.92,2028.78,3339.35,2981.68,3417.46,599.84,595.36,6.55,0000 0000 0000 0000 000000
2017-04-22 08:02:42,0.01,0.39,0.00,25.70,27.98,30.86,14.42,48.35,1024.93,2028.40,3338.06,2980.77,3416.41,599.93,595.41,6.60,0000 0000 0000 0000 000000
2017-04-22 08:07:43,0.03,0.39,0.00,25.72,28.01,30.88,14.41,48.42,1024.97,2028.05,3336.72,2979.90,3415.36,599.93,595.43,6.65,0000 0000 0000 0000 000000
2017-04-22 08:12:44,0.05,0.39,0.00,25.75,28.04,30.90,14.44,48.39,1025.25,2028.00,3335.51,2978.99,3414.29,600.12,595.76,6.70,0000 0000 0000 0000 000000
2017-04-22 08:17:46,0.06,0.40,0.00,25.79,28.06,30.92,14.48,48.36,1025.40,2028.00,3334.17,2978.05,3413.21,600.02,595.64,6.75,0000 0000 0000 0000 000000
2017-04-22 08:22:47,0.06,0.40,0.00,25.79,28.09,30.94,14.46,48.34,1025.40,2027.99,3332.81,2977.14,3412.11,600.18,595.72,6.80,0000 0000 0000 0000 000000
2017-04-22 08:27:48,0.06,0.40,0.00,25.81,28.11,30.98,14.45,48.38,1025.42,2027.97,3331.64,2976.32,3411.08,600.28,595.78,6.85,0000 0000 0000 0000 000000
2017-04-22 08:32:49,0.06,0.41,0.00,25.84,28.14,31.02,14.33,48.32,1025.49,2027.97,3330.35,2975.45,3410.08,599.77,595.34,6.90,0000 0000 0000 0000 000000
2017-04-22 08:37:51,0.02,0.41,0.00,25.88,28.16,31.03,14.40,48.29,1025.79,2027.68,3329.10,2974.51,3409.04,600.07,595.71,6.95,0000 0000 0000 0000 000000
2017-04-22 08:42:52,0.02,0.41,0.00,25.92,28.19,31.08,14.46,48.15,1025.87,2027.25,3327.92,2973.74,3408.08,599.85,595.45,7.00,0000 0000 0000 0000 000000
2017-04-22 08:47:53,0.04,0.41,0.00,25.95,28.21,31.09,14.43,48.26,1025.84,2027.05,3326.81,2972.92,3407.12,599.82,595.40,7.05,0000 0000 0000 0000 000000
2017-04-22 08:52:54,0.05,0.41,0.00,25.95,28.24,31.11,14.40,48.22,1025.89,2027.01,3325.66,2972.07,3406.05,600.23,595.71,7.10,0000 0000 0000 0000 000000
2017-04-22 08:57:55,0.06,0.42,0.00,25.96,28.27,31.14,14.45,48.17,1025.90,2027.00,3324.53,2971.17,3405.06,600.07,595.68,7.15,0000 0000 0000 0000 000000
2017-04-22 09:02:57,0.05,0.42,0.00,25.97,28.29,31.16,14.43,48.27,1025.90,2027.00,3323.40,2970.42,3404.11,600.11,595.66,7.20,0000 0000 0000 0000 000000
2017-04-22 09:07:58,0.04,0.42,0.00,25.97,28.32,31.21,14.43,48.25,1025.92,2026.98,3322.29,2969.68,3403.23,599.81,595.26,7.26,0000 0000 0000 0000 000000
2017-04-22 09:12:59,0.05,0.42,0.00,25.96,28.34,31.24,14.44,48.32,1025.93,2026.96,3321.11,2968.86,3402.20,599.92,595.52,7.31,0000 0000 0000 0000 000000
2017-04-22 09:18:01,0.05,0.43,0.00,25.97,28.36,31.27,14.40,48.25,1026.09,2026.89,3319.87,2968.00,3401.21,599.79,595.60,7.36,0000 0000 0000 0000 000000
2017-04-22 09:23:02,0.04,0.43,0.00,25.98,28.38,31.28,14.40,48.32,1025.93,2026.48,3318.21,2966.91,3399.93,600.24,595.77,7.41,0000 0000 0000 0000 000000
2017-04-22 09:28:04,0.07,0.43,0.00,25.98,28.40,31.32,14.43,48.25,1026.13,2026.29,3316.23,2965.61,3398.44,600.02,595.77,7.46,0000 0000 0000 0000 000000
2017-04-22 09:33:05,0.14,0.44,0.00,26.00,28.42,31.34,14.35,48.31,1026.38,2026.09,3313.05,2963.62,3396.22,599.91,595.66,7.51,0000 0000 0000 0000 000000
2017-04-22 09:38:06,0.18,0.45,0.00,26.01,28.44,31.37,14.54,48.48,1026.38,2026.01,3308.98,2961.09,3393.28,600.10,595.82,7.56,0000 0000 0000 0000 000000
2017-04-22 09:43:07,0.18,0.46,0.00,26.03,28.45,31.39,14.47,48.37,1026.39,2026.00,3304.71,2958.41,3390.36,600.12,595.72,7.61,0000 0000 0000 0000 000000
2017-04-22 09:48:09,0.17,0.47,0.00,26.06,28.47,31.40,14.37,48.41,1026.51,2026.00,3300.81,2955.92,3387.60,599.99,595.73,7.66,0000 0000 0000 0000 000000
2017-04-22 09:53:10,0.18,0.47,0.00,26.08,28.50,31.42,14.45,48.37,1026.75,2025.99,3296.77,2953.33,3384.64,600.27,595.92,7.71,0000 0000 0000 0000 000000
2017-04-22 09:58:11,0.24,0.48,0.00,26.10,28.51,31.44,14.43,48.34,1026.72,2025.99,3291.92,2950.12,3380.98,599.99,595.63,7.76,0000 0000 0000 0000 000000
2017-04-22 10:03:13,0.27,0.50,0.00,26.11,28.53,31.46,14.45,48.28,1026.86,2025.97,3285.96,2946.07,3376.47,600.29,595.99,7.81,0000 0000 0000 0000 000000
2017-04-22 10:08:14,0.28,0.51,0.00,26.10,28.55,31.49,14.37,48.27,1026.87,2025.82,3279.58,2941.93,3371.69,599.79,595.52,7.86,0000 0000 0000 0000 000000
2017-04-22 10:13:15,0.26,0.53,0.00,26.12,28.57,31.50,14.39,48.29,1026.89,2025.54,3272.94,2937.72,3366.94,599.89,595.58,7.91,0000 0000 0000 0000 000000
2017-04-22 10:18:17,0.21,0.54,0.00,26.13,28.60,31.52,14.46,48.29,1027.00,2025.28,3267.45,2934.19,3362.99,600.22,595.98,7.96,0000 0000 0000 0000 000000
2017-04-22 10:23:18,0.28,0.55,0.00,26.12,28.61,31.54,14.41,48.33,1027.08,2025.08,3261.48,2930.05,3358.34,600.16,595.98,8.01,0000 0000 0000 0000 000000
2017-04-22 10:28:19,0.16,0.56,0.00,26.12,28.62,31.57,14.39,48.33,1027.30,2025.02,3257.20,2927.21,3355.10,599.99,595.88,8.06,0000 0000 0000 0000 000000
2017-04-22 10:33:20,0.13,0.57,0.00,26.11,28.65,31.58,14.46,48.38,1027.35,2025.00,3254.30,2925.39,3352.99,599.88,595.95,8.11,0000 0000 0000 0000 000000
2017-04-22 10:38:21,0.11,0.58,0.00,26.07,28.66,31.59,14.44,48.37,1027.36,2025.01,3251.80,2923.78,3351.25,599.80,596.05,8.16,0000 0000 0000 0000 000000
2017-04-22 10:43:23,0.14,0.58,0.00,26.00,28.67,31.64,14.46,48.30,1027.36,2025.00,3248.85,2921.76,3348.93,600.04,596.32,8.21,0000 0000 0000 0000 000000
2017-04-22 10:48:24,0.15,0.59,0.00,25.94,28.67,31.67,14.44,48.39,1027.37,2025.00,3245.69,2919.58,3346.44,600.05,596.44,8.26,0000 0000 0000 0000 000000
2017-04-22 10:53:25,0.14,0.60,0.00,25.87,28.67,31.66,14.51,48.40,1027.36,2025.00,3242.70,2917.47,3344.15,600.30,596.77,8.31,0000 0000 0000 0000 000000
2017-04-22 10:58:26,0.19,0.61,0.00,25.83,28.67,31.63,14.42,48.38,1027.36,2025.00,3238.81,2914.91,3341.19,600.16,596.85,8.36,0000 0000 0000 0000 000000
2017-04-22 11:03:27,0.20,0.62,0.00,25.78,28.67,31.58,14.50,48.40,1027.37,2025.00,3234.67,2912.11,3338.03,600.26,596.91,8.41,0000 0000 0000 0000 000000
2017-04-22 11:08:28,0.22,0.63,0.00,25.74,28.67,31.58,14.44,48.27,1027.37,2025.00,3230.12,2909.01,3334.61,600.06,596.80,8.46,0000 0000 0000 0000 000000
2017-04-22 11:13:29,0.24,0.64,0.00,25.71,28.67,31.59,14.49,48.34,1027.38,2025.00,3225.04,2905.62,3330.78,600.04,596.98,8.51,0000 0000 0000 0000 000000
2017-04-22 11:18:31,0.23,0.65,0.00,25.67,28.65,31.59,14.45,48.35,1027.45,2025.00,3220.13,2902.29,3327.09,599.88,596.89,8.56,0000 0000 0000 0000 000000
2017-04-22 11:23:32,0.19,0.66,0.00,25.64,28.65,31.54,14.45,48.38,1027.67,2025.00,3215.78,2899.45,3323.98,599.96,597.16,8.61,0000 0000 0000 0000 000000
2017-04-22 11:28:33,0.13,0.67,0.00,25.61,28.63,31.51,14.52,48.37,1027.80,2025.01,3212.47,2897.37,3321.56,599.96,597.30,8.66,0000 0000 0000 0000 000000
2017-04-22 11:33:34,0.13,0.68,0.00,25.60,28.62,31.50,14.45,48.23,1027.76,2025.01,3209.75,2895.58,3319.54,600.18,597.51,8.71,0000 0000 0000 0000 000000
2017-04-22 11:38:36,0.12,0.68,0.00,25.56,28.61,31.51,14.48,48.27,1027.82,2025.01,3207.13,2893.81,3317.60,599.70,597.10,8.76,0000 0000 0000 0000 000000
2017-04-22 11:43:38,0.09,0.69,0.00,25.52,28.60,31.45,14.47,48.36,1027.85,2025.03,3205.01,2892.48,3316.01,599.88,597.40,8.81,0000 0000 0000 0000 000000
2017-04-22 11:48:39,0.07,0.69,0.00,25.50,28.57,31.47,14.47,48.28,1027.85,2025.06,3203.46,2891.40,3314.70,599.96,597.54,8.86,0000 0000 0000 0000 000000
2017-04-22 11:53:41,0.04,0.69,0.00,25.51,28.56,31.42,14.46,48.34,1027.85,2025.07,3202.33,2890.68,3313.84,599.94,597.52,8.91,0000 0000 0000 0000 000000
2017-04-22 11:58:42,0.04,0.70,0.00,25.52,28.55,31.41,14.53,48.40,1027.86,2025.09,3201.22,2890.01,3313.03,599.89,597.43,8.96,0000 0000 0000 0000 000000
2017-04-22 12:03:43,0.08,0.70,0.00,25.52,28.53,31.40,14.55,48.30,1027.86,2025.36,3200.35,2889.37,3312.39,600.07,597.58,9.01,0000 0000 0000 0000 000000
2017-04-22 12:08:44,0.09,0.70,0.00,25.52,28.52,31.36,14.48,48.28,1027.91,2025.71,3199.18,2888.68,3311.57,600.21,597.80,9.06,0000 0000 0000 0000 000000
2017-04-22 12:13:46,0.14,0.71,0.00,25.49,28.50,31.36,14.48,48.36,1027.95,2025.81,3196.64,2886.91,3309.49,599.91,597.66,9.11,0000 0000 0000 0000 000000
2017-04-22 12:18:47,0.15,0.72,0.00,25.47,28.48,31.35,14.54,48.33,1028.19,2025.87,3193.55,2884.78,3307.08,600.17,597.99,9.16,0000 0000 0000 0000 000000
2017-04-22 12:23:48,0.08,0.73,0.00,25.45,28.47,31.34,14.48,48.38,1028.26,2025.88,3191.62,2883.37,3305.52,600.03,597.95,9.21,0000 0000 0000 0000 000000
2017-04-22 12:28:50,0.10,0.73,0.00,25.42,28.45,31.32,14.42,48.30,1028.30,2025.95,3189.70,2882.08,3304.11,599.93,597.87,9.26,0000 0000 0000 0000 000000
2017-04-22 12:33:51,0.10,0.73,0.00,25.41,28.44,31.31,14.61,48.43,1028.33,2025.96,3187.67,2880.72,3302.55,600.04,598.05,9.31,0000 0000 0000 0000 000000
2017-04-22 12:38:53,0.10,0.74,0.00,25.39,28.42,31.28,14.51,48.43,1028.33,2025.98,3185.53,2879.47,3301.05,600.24,598.33,9.36,0000 0000 0000 0000 000000
2017-04-22 12:43:54,0.13,0.75,0.00,25.35,28.40,31.28,14.45,48.42,1028.33,2025.99,3182.86,2877.79,3299.03,599.87,598.01,9.41,0000 0000 0000 0000 000000
2017-04-22 12:48:55,0.12,0.75,0.00,25.34,28.40,31.26,14.44,48.44,1028.33,2025.99,3180.25,2876.07,3297.08,599.97,598.03,9.47,0000 0000 0000 0000 000000
2017-04-22 12:53:56,0.10,0.76,0.00,25.32,28.37,31.25,14.55,48.44,1028.29,2025.99,3178.05,2874.63,3295.52,600.07,598.25,9.52,0000 0000 0000 0000 000000
2017-04-22 12:58:58,0.13,0.76,0.00,25.30,28.36,31.23,14.53,48.40,1028.11,2025.99,3175.28,2872.80,3293.36,600.06,598.19,9.57,0000 0000 0000 0000 000000